Погода в Дубровке

Россия / Кемеровская область (Кузбасс)     55°55′25″N   85°21′14″E
темп.,
°C
ветер,
м/с
пор.,
м/с
влажн.,
%
обл.,
%
осадки,
мм/ч
давл.,
гПа
погр.,
м
27 февраля, сб
сб2701:00−25юз41096100 0.1 1034714
04:00−25юз4996100 0.2 1034662
07:00−25юз4995100 0.4 1035606
10:00−25юз4894100 0.1 1036589
13:00−23юз4791100 0.3 1036675
16:00−22юз4791100 0.1 1036684
19:00−24юз3896100 0.1 1037397
22:00−25юз3898100 0.0 1038248
28 февраля, вс
вс2801:00−27юз2798100 0.1 1038177
04:00−28ююз2599100 0.0 1039127
07:00−30ю239897 0.1 103969
10:00−27ю369554 0.0 1039204
13:00−21ю359263 0.0 1036332
16:00−18ююв368881 0.0 1033428
19:00−20вюв369790 0.0 1031135
22:00−18юв3795100 0.0 1028183
1 марта, пн
пн101:00−15юв3796100 0.3 1025243
04:00−13вюв3795100 0.4 1021276
07:00−11вюв3895100 1.1 1018341
10:00−9вюв3795100 1.0 1015307
13:00−7в4794100 2.1 1012427
16:00−7всв51094100 1.3 1010429
19:00−9всв61293100 4.0 1009405
22:00−11св61292100 1.4 1010401
2 марта, вт
вт201:00−14св41092100 1.5 1011372
04:00−17св399594 0.0 1013305
07:00−18всв379597 0.1 1016296
10:00−17всв3695100 0.2 1016278
13:00−14всв2492100 0.6 1017369
16:00−12всв2392100 0.4 1017376
19:00−14всв3595100 0.7 1017198
22:00−15всв3695100 0.1 1017232
3 марта, ср
ср301:00−17всв3695100 0.2 1017173
04:00−19всв369796 0.0 1016153
07:00−19всв379598 0.1 1016224
10:00−18всв3795100 0.1 1016265
13:00−16всв3693100 0.3 1016335
16:00−16св4693100 0.2 1016392
19:00−18св3795100 0.6 1018387
22:00−19всв3795100 0.2 1021369